This demonstration page uses our WeatherBlox Daily Observations layout. Learn more.

Left ArrowRight Arrow

Hourly Observations for March 7, 2016

Temp ( °F °C ) Dew Point ( °F °C ) Humidity (%) Winds ( mph kmh ) Pressure ( in mb ) Visibility ( mi km ) Precip ( " mm )
12:15 am 00:15 Clear 48 9 43 6 82 82 E 10 17 29.53 1000 10 16 0.00 0.00
12:35 am 00:35 Clear 46 8 43 6 87 87 ESE 9 15 29.53 1000 10 16 0.00 0.00
12:55 am 00:55 Clear 45 7 41 5 87 87 NE 7 11 29.56 1001 10 16 0.00 0.00
1:15 am 01:15 Clear 45 7 41 5 87 87 undefined N/A 29.56 1001 10 16 0.00 0.00
1:35 am 01:35 Clear 45 7 41 5 87 87 S 8 13 29.53 1000 10 16 0.00 0.00
1:55 am 01:55 Clear 45 7 43 6 93 93 S 9 15 29.56 1001 10 16 0.00 0.00
2:15 am 02:15 Clear 45 7 43 6 93 93 SSW 7 11 29.53 1000 10 16 0.00 0.00
2:35 am 02:35 Clear 43 6 39 4 87 87 ESE 7 11 29.53 1000 8 13 0.00 0.00
2:55 am 02:55 Clear 41 5 39 4 93 93 undefined N/A 29.53 1000 3 4 0.00 0.00
3:15 am 03:15 Mostly Cloudy 39 4 37 3 93 93 SSE 6 9 29.53 1000 1 1 0.00 0.00
3:35 am 03:35 Cloudy 39 4 37 3 93 93 SSE 5 7 29.53 1000 0 0 0.00 0.00
3:55 am 03:55 Cloudy 39 4 37 3 93 93 SSE 5 7 29.53 1000 0 0 0.00 0.00
4:15 am 04:15 Cloudy 36 2 36 2 100 100 Calm 29.56 1001 1 1 0.00 0.00
4:35 am 04:35 Cloudy 37 3 36 2 93 93 Calm 29.56 1001 0 0 0.00 0.00
4:55 am 04:55 Cloudy 36 2 34 1 93 93 Calm 29.56 1001 5 8 0.00 0.00
5:15 am 05:15 Cloudy 34 1 34 1 100 100 Calm 29.56 1001 5 8 0.00 0.00
5:35 am 05:35 Cloudy 36 2 34 1 93 93 Calm 29.56 1001 5 8 0.00 0.00
5:55 am 05:55 Cloudy 34 1 34 1 100 100 S 5 7 29.56 1001 5 8 0.00 0.00
6:15 am 06:15 Cloudy 37 3 36 2 93 93 ESE 5 7 29.56 1001 5 8 0.00 0.00
6:35 am 06:35 Cloudy 39 4 37 3 93 93 ESE 3 6 29.53 1000 5 8 0.00 0.00
6:55 am 06:55 Cloudy 41 5 39 4 93 93 Calm 29.53 1000 5 8 0.00 0.00
7:15 am 07:15 Cloudy 43 6 39 4 87 87 Calm 29.53 1000 5 8 0.00 0.00
7:35 am 07:35 Cloudy 43 6 41 5 93 93 Calm 29.53 1000 5 8 0.00 0.00
7:55 am 07:55 Cloudy 43 6 41 5 93 93 NE 3 6 29.53 1000 5 8 0.00 0.00
8:15 am 08:15 Cloudy 43 6 43 6 100 100 Calm 29.53 1000 5 8 0.00 0.00
8:35 am 08:35 Cloudy 45 7 45 7 100 100 Calm 29.53 1000 5 8 0.00 0.00
8:55 am 08:55 Cloudy 46 8 46 8 100 100 ESE 3 6 29.50 999 5 8 0.00 0.00
9:15 am 09:15 Cloudy 52 11 52 11 100 100 SSE 8 13 29.47 998 2 2 0.00 0.00
9:35 am 09:35 Cloudy 52 11 52 11 100 100 SSE 12 19 29.47 998 5 8 0.00 0.00
9:55 am 09:55 Cloudy 52 11 52 11 100 100 SE 12 19 29.47 998 7 11 0.00 0.00
10:15 am 10:15 Cloudy 54 12 52 11 94 94 SSE 13 20 29.47 998 8 13 0.00 0.00
10:35 am 10:35 Cloudy 54 12 52 11 94 94 SSE 13 20 29.47 998 10 16 0.00 0.00
10:55 am 10:55 Mostly Cloudy 55 13 52 11 88 88 SSE 13 20 29.47 998 10 16 0.00 0.00
11:15 am 11:15 Sunny 57 14 52 11 82 82 S 13 20 29.47 998 10 16 0.00 0.00
11:55 am 11:55 Sunny 68 20 43 6 40 40 S 17 28 29.41 996 10 16 0.00 0.00
12:15 pm 12:15 Sunny 70 21 41 5 35 35 S 17 28 29.41 996 10 16 0.00 0.00
12:35 pm 12:35 Sunny 72 22 39 4 31 31 S 16 26 29.41 996 10 16 0.00 0.00
12:55 pm 12:55 Sunny 73 23 39 4 29 29 S 16 26 29.38 995 10 16 0.00 0.00
1:15 pm 13:15 Sunny 75 24 37 3 25 25 ESE 21 33 29.35 994 10 16 0.00 0.00
1:35 pm 13:35 Sunny 75 24 36 2 24 24 ESE 20 31 29.35 994 10 16 0.00 0.00
1:55 pm 13:55 Sunny 79 26 34 1 20 20 SSE 23 37 29.35 994 10 16 0.00 0.00
2:15 pm 14:15 Sunny 79 26 30 -1 17 17 SSE 26 43 29.29 992 10 16 0.00 0.00
2:35 pm 14:35 Sunny 79 26 30 -1 17 17 SE 24 39 29.29 992 10 16 0.00 0.00
2:55 pm 14:55 Sunny 79 26 28 -2 16 16 SE 23 37 29.29 992 10 16 0.00 0.00
3:15 pm 15:15 Sunny 81 27 27 -3 14 14 SE 30 48 29.29 992 10 16 0.00 0.00
3:35 pm 15:35 Sunny 79 26 25 -4 13 13 ESE 31 50 29.29 992 10 16 0.00 0.00
3:55 pm 15:55 Sunny 79 26 23 -5 12 12 ESE 33 54 29.26 991 10 16 0.00 0.00
4:15 pm 16:15 Sunny 79 26 21 -6 12 12 E 29 46 29.26 991 10 16 0.00 0.00
4:35 pm 16:35 Sunny 79 26 23 -5 12 12 E 30 48 29.26 991 10 16 0.00 0.00
4:55 pm 16:55 Sunny 79 26 21 -6 12 12 ENE 32 52 29.26 991 10 16 0.00 0.00
5:15 pm 17:15 Sunny 79 26 21 -6 12 12 ENE 24 39 29.26 991 10 16 0.00 0.00
5:35 pm 17:35 Sunny 77 25 23 -5 13 13 NE 22 35 29.32 993 10 16 0.00 0.00
5:55 pm 17:55 Sunny 73 23 34 1 23 23 SE 23 37 29.32 993 10 16 0.00 0.00
6:15 pm 18:15 Sunny 72 22 34 1 25 25 SE 23 37 29.32 993 10 16 0.00 0.00
6:35 pm 18:35 Clear 70 21 30 -1 23 23 SE 22 35 29.35 994 10 16 0.00 0.00
6:55 pm 18:55 Clear 70 21 28 -2 21 21 ESE 20 31 29.38 995 10 16 0.00 0.00
7:15 pm 19:15 Clear 66 19 30 -1 26 26 ESE 16 26 29.38 995 10 16 0.00 0.00
7:35 pm 19:35 Clear 66 19 30 -1 26 26 E 12 19 29.38 995 10 16 0.00 0.00
7:55 pm 19:55 Clear 64 18 34 1 32 32 ENE 14 22 29.41 996 10 16 0.00 0.00
8:15 pm 20:15 Clear 63 17 36 2 37 37 SSE 17 28 29.44 997 10 16 0.00 0.00
8:35 pm 20:35 Clear 64 18 50 10 60 60 SE 18 30 29.44 997 10 16 0.00 0.00
8:55 pm 20:55 Mostly Cloudy 64 18 45 7 49 49 E 15 24 29.44 997 10 16 0.00 0.00
9:15 pm 21:15 Mostly Clear 63 17 54 12 73 73 SE 22 35 29.44 997 10 16 0.00 0.00
9:35 pm 21:35 Clear 63 17 54 12 73 73 ESE 21 33 29.44 997 10 16 0.00 0.00
9:55 pm 21:55 Clear 61 16 52 11 72 72 S 16 26 29.47 998 10 16 0.00 0.00
10:15 pm 22:15 Clear 57 14 48 9 72 72 SE 10 17 29.50 999 10 16 0.00 0.00
10:35 pm 22:35 Clear 54 12 45 7 72 72 S 10 17 29.50 999 10 16 0.00 0.00
10:55 pm 22:55 Clear 54 12 30 -1 41 41 SW 13 20 29.50 999 10 16 0.00 0.00
11:15 pm 23:15 Clear 55 13 30 -1 38 38 SW 16 26 29.50 999 10 16 0.00 0.00
11:35 pm 23:35 Clear 54 12 34 1 47 47 SW 18 30 29.53 1000 10 16 0.00 0.00
11:55 pm 23:55 Clear 52 11 36 2 54 54 SW 16 26 29.56 1001 10 16 0.00 0.00

Powered by AerisWeather